| time (UTC) | temp F | wind direction | speed MPH | gust MPH | rain 1hr in | rain 24hr in | rain mn in | humidity % | barometer mb |
| 20260509030031 | 59 | 244 | 0.0 | 5.0 | 0.00 | 0.00 | 0.00 | 57 | 1024.1 |
| 20260509024529 | 60 | 245 | 0.0 | 5.0 | 0.00 | 0.00 | 0.00 | 55 | 1024.0 |
| 20260509020027 | 63 | 251 | 1.0 | 6.0 | 0.00 | 0.00 | 0.00 | 51 | 1023.6 |
| 20260509014530 | 64 | 251 | 1.0 | 15.0 | 0.00 | 0.00 | 0.00 | 49 | 1023.5 |
| 20260509013026 | 64 | 252 | 1.0 | 10.0 | 0.00 | 0.00 | 0.00 | 48 | 1023.6 |
| 20260509011531 | 65 | 249 | 2.0 | 9.0 | 0.00 | 0.00 | 0.00 | 48 | 1023.5 |
| 20260509004531 | 66 | 244 | 2.0 | 10.0 | 0.00 | 0.00 | 0.00 | 45 | 1023.4 |
| 20260509001531 | 67 | 251 | 1.0 | 8.0 | 0.00 | 0.00 | 0.00 | 42 | 1023.3 |
| 20260508234529 | 67 | 259 | 1.0 | 7.0 | 0.00 | 0.00 | 0.00 | 40 | 1023.3 |
| 20260508233104 | 67 | 267 | 0.0 | 7.0 | 0.00 | 0.00 | 0.00 | 39 | 1023.3 |
| 20260508231532 | 67 | 262 | 1.0 | 9.0 | 0.00 | 0.00 | 0.00 | 41 | 1023.3 |
| 20260508230031 | 66 | 263 | 1.0 | 10.0 | 0.00 | 0.00 | 0.00 | 42 | 1023.3 |
| 20260508224531 | 66 | 263 | 1.0 | 6.0 | 0.00 | 0.00 | 0.00 | 44 | 1023.4 |
| 20260508221529 | 64 | 269 | 1.0 | 8.0 | 0.00 | 0.00 | 0.00 | 47 | 1023.4 |
| 20260508220028 | 64 | 278 | 1.0 | 6.0 | 0.00 | 0.00 | 0.00 | 48 | 1023.4 |
| 20260508213031 | 63 | 275 | 1.0 | 8.0 | 0.00 | 0.00 | 0.00 | 50 | 1023.4 |
| 20260508211529 | 62 | 278 | 1.0 | 7.0 | 0.00 | 0.00 | 0.00 | 51 | 1023.4 |
| 20260508210031 | 62 | 278 | 1.0 | 8.0 | 0.00 | 0.00 | 0.00 | 52 | 1023.4 |
| 20260508203031 | 62 | 273 | 1.0 | 7.0 | 0.00 | 0.00 | 0.00 | 52 | 1023.3 |
| 20260508201532 | 61 | 277 | 2.0 | 11.0 | 0.00 | 0.00 | 0.00 | 53 | 1023.3 |
| 20260508200029 | 61 | 286 | 2.0 | 10.0 | 0.00 | 0.00 | 0.00 | 54 | 1023.2 |
| 20260508194529 | 61 | 281 | 1.0 | 10.0 | 0.00 | 0.00 | 0.00 | 55 | 1023.2 |
| 20260508191529 | 60 | 280 | 1.0 | 7.0 | 0.00 | 0.00 | 0.00 | 55 | 1023.2 |
| 20260508190030 | 60 | 275 | 1.0 | 6.0 | 0.00 | 0.00 | 0.00 | 57 | 1023.3 |
| 20260508184529 | 58 | 277 | 0.0 | 13.0 | 0.00 | 0.00 | 0.00 | 59 | 1023.4 |
| 20260508183106 | 57 | 277 | 1.0 | 12.0 | 0.00 | 0.00 | 0.00 | 60 | 1023.3 |
| 20260508181534 | 54 | 273 | 1.0 | 8.0 | 0.00 | 0.00 | 0.00 | 64 | 1023.3 |
| 20260508180106 | 52 | 272 | 1.0 | 12.0 | 0.00 | 0.00 | 0.00 | 66 | 1023.1 |
| 20260508173029 | 51 | 275 | 1.0 | 8.0 | 0.00 | 0.00 | 0.00 | 66 | 1022.8 |
| 20260508171605 | 52 | 273 | 1.0 | 7.0 | 0.00 | 0.00 | 0.00 | 66 | 1022.8 |
| 20260508170031 | 52 | 272 | 1.0 | 10.0 | 0.00 | 0.00 | 0.00 | 66 | 1022.7 |
| 20260508164530 | 52 | 273 | 0.0 | 7.0 | 0.00 | 0.00 | 0.00 | 68 | 1022.8 |
| 20260508163029 | 52 | 277 | 0.0 | 8.0 | 0.00 | 0.00 | 0.00 | 68 | 1022.9 |
| 20260508161605 | 53 | 268 | 1.0 | 11.0 | 0.00 | 0.00 | 0.00 | 67 | 1022.8 |
| 20260508154532 | 53 | 259 | 1.0 | 6.0 | 0.00 | 0.00 | 0.00 | 68 | 1022.7 |
| 20260508153031 | 53 | 267 | 1.0 | 8.0 | 0.00 | 0.00 | 0.00 | 68 | 1022.5 |
| 20260508150029 | 53 | 262 | 2.0 | 10.0 | 0.00 | 0.00 | 0.00 | 68 | 1022.1 |
| 20260508144530 | 53 | 261 | 2.0 | 9.0 | 0.00 | 0.00 | 0.00 | 66 | 1021.8 |
| 20260508140033 | 53 | 263 | 1.0 | 7.0 | 0.00 | 0.00 | 0.00 | 62 | 1021.1 |
| 20260508134531 | 53 | 273 | 1.0 | 8.0 | 0.00 | 0.00 | 0.00 | 63 | 1020.9 |
| 20260508133032 | 53 | 266 | 1.0 | 6.0 | 0.00 | 0.00 | 0.00 | 65 | 1020.8 |
| 20260508131645 | 53 | 275 | 0.0 | 5.0 | 0.00 | 0.00 | 0.00 | 65 | 1020.8 |
| 20260508130030 | 54 | 277 | 1.0 | 8.0 | 0.00 | 0.00 | 0.00 | 64 | 1020.7 |
| 20260508123032 | 54 | 279 | 0.0 | 5.0 | 0.00 | 0.00 | 0.00 | 62 | 1020.6 |
| 20260508121526 | 55 | 271 | 0.0 | 4.0 | 0.00 | 0.00 | 0.00 | 61 | 1020.5 |
| 20260508114645 | 54 | 270 | 0.0 | 6.0 | 0.00 | 0.00 | 0.00 | 60 | 1020.3 |
| 20260508113031 | 54 | 275 | 0.0 | 2.0 | 0.00 | 0.00 | 0.00 | 58 | 1020.3 |
| 20260508111605 | 56 | 251 | 0.0 | 5.0 | 0.00 | 0.00 | 0.00 | 54 | 1020.2 |
| 20260508110104 | 56 | 253 | 0.0 | 4.0 | 0.00 | 0.00 | 0.00 | 54 | 1020.1 |
| 20260508104644 | 55 | 257 | 0.0 | 4.0 | 0.00 | 0.00 | 0.00 | 56 | 1020.1 |
| 20260508101542 | 52 | 223 | 0.0 | 4.0 | 0.00 | 0.00 | 0.00 | 63 | 1020.1 |
| 20260508100103 | 51 | 281 | 0.0 | 2.0 | 0.00 | 0.00 | 0.00 | 63 | 1020.1 |
| 20260508094532 | 51 | 247 | 0.0 | 2.0 | 0.00 | 0.00 | 0.00 | 63 | 1020.1 |
| 20260508093032 | 53 | 247 | 0.0 | 1.0 | 0.00 | 0.00 | 0.00 | 59 | 1020.0 |
| 20260508091607 | 54 | 247 | 0.0 | 1.0 | 0.00 | 0.00 | 0.00 | 56 | 1019.9 |
| 20260508090031 | 55 | 253 | 0.0 | 2.0 | 0.00 | 0.00 | 0.00 | 53 | 1019.9 |
| 20260508084605 | 56 | 260 | 0.0 | 2.0 | 0.00 | 0.00 | 0.00 | 52 | 1019.9 |
| 20260508083030 | 56 | 273 | 0.0 | 2.0 | 0.00 | 0.00 | 0.00 | 50 | 1019.9 |
| 20260508081529 | 57 | 281 | 0.0 | 6.0 | 0.00 | 0.00 | 0.00 | 49 | 1020.0 |
| 20260508080106 | 57 | 277 | 0.0 | 6.0 | 0.00 | 0.00 | 0.00 | 48 | 1020.0 |
| 20260508074528 | 57 | 268 | 0.0 | 6.0 | 0.00 | 0.00 | 0.00 | 47 | 1020.0 |
| 20260508073033 | 58 | 252 | 0.0 | 4.0 | 0.00 | 0.00 | 0.00 | 45 | 1020.1 |
| 20260508071531 | 58 | 253 | 1.0 | 5.0 | 0.00 | 0.00 | 0.00 | 45 | 1020.0 |
| 20260508070030 | 58 | 271 | 0.0 | 6.0 | 0.00 | 0.00 | 0.00 | 44 | 1020.0 |
| 20260508064531 | 58 | 269 | 0.0 | 4.0 | 0.00 | 0.00 | 0.00 | 47 | 1020.0 |
| 20260508063030 | 57 | 262 | 0.0 | 7.0 | 0.00 | 0.00 | 0.00 | 49 | 1020.0 |
| 20260508061603 | 57 | 255 | 0.0 | 4.0 | 0.00 | 0.00 | 0.00 | 50 | 1020.0 |
| 20260508060029 | 56 | 259 | 0.0 | 3.0 | 0.00 | 0.00 | 0.00 | 51 | 1020.1 |
| 20260508054531 | 54 | 263 | 0.0 | 3.0 | 0.00 | 0.00 | 0.00 | 54 | 1020.0 |
| 20260508053030 | 55 | 247 | 0.0 | 1.0 | 0.00 | 0.00 | 0.00 | 53 | 1020.1 |
| 20260508051529 | 56 | 247 | 0.0 | 3.0 | 0.00 | 0.00 | 0.00 | 51 | 1020.1 |
| 20260508044531 | 58 | 270 | 0.0 | 4.0 | 0.00 | 0.00 | 0.00 | 46 | 1019.9 |
| 20260508043038 | 59 | 263 | 0.0 | 4.0 | 0.00 | 0.00 | 0.00 | 45 | 1019.9 |
| 20260508041527 | 59 | 252 | 0.0 | 4.0 | 0.00 | 0.00 | 0.00 | 44 | 1019.9 |
| 20260508040105 | 59 | 253 | 0.0 | 3.0 | 0.00 | 0.00 | 0.00 | 44 | 1019.6 |
| 20260508034533 | 58 | 272 | 0.0 | 3.0 | 0.00 | 0.00 | 0.00 | 44 | 1019.6 |
| 20260508033030 | 58 | 261 | 0.0 | 2.0 | 0.00 | 0.00 | 0.00 | 41 | 1019.4 |
| 20260508031607 | 60 | 262 | 0.0 | 2.0 | 0.00 | 0.00 | 0.00 | 37 | 1019.4 |